{"data":{"norad_id":56724,"epoch":"2026-09-19T17:18:51.990048Z","epoch_age_seconds":85605,"freshness":"FRESH","line1":"1 56724U 23068Q   26262.72143507  .00000062  00000+0  13075-3 0  9996","line2":"2 56724  87.8994 240.3539 0002708  70.4200 289.7223 13.15548179161686","mean_motion":13.15548179,"eccentricity":0.0002708,"inclination_deg":87.8994,"raan_deg":240.3539,"arg_perigee_deg":70.42,"mean_anomaly_deg":289.7223,"bstar":0.00013075,"rev_number":16168,"period_min":109.46007322169,"perigee_km":1199.719553134,"apogee_km":1203.8248319527,"semimajor_km":7579.9091925433,"source":"CELESTRAK","updated_at":"2026-09-20T09:00:44.797390Z"}}